"Pseudo-MPEC" for C03CZA1

Created 2019 Feb 15 22:18:03 UT using Find_Orb

Click here for an explanation of pseudo-MPECs

 
 Astrometry: 
     C03CZA1  C2019 02 09.36895 11 20 53.77 +02 42 49.8    ~29C3 18.7 GVNEOCP703
     C03CZA1  C2019 02 09.37419 11 20 52.06 +02 40 19.0    ~29C3 18.5 GVNEOCP703
     C03CZA1  C2019 02 09.37943 11 20 50.59 +02 37 49.0    ~29C3 19.1 GVNEOCP703
     C03CZA1  C2019 02 09.38468 11 20 48.93 +02 35 14.2    ~29C3 18.7 GVNEOCP703
     C03CZA1  C2019 02 09.48379 11 20 11.99 +01 35 48.3    ~29NX 18.1 GVNEOCPI52
     C03CZA1  C2019 02 09.48439 11 20 11.73 +01 35 22.2    ~29NX 18.1 GVNEOCPI52
     C03CZA1  C2019 02 09.48470 11 20 11.61 +01 35 09.1    ~29NX 18.1 GVNEOCPI52

Station data:
(703) Catalina Sky Survey  (N32.417006 W110.732640)  US/Arizona.  Observers
   B. M. Africano, E. J. Christensen, G. A. Farneth, D. C. Fuls, A. R. Gibbs,
   A. D. Grauer, H. Groeller, J. A. Johnson, R. A. Kowalski, S. M. Larson, G.
   J. Leonard, R. L. Seaman, F. C. Shelly. 0.68 m Schmidt + 10K CCD.
(I52) Steward Observatory, Mt. Lemmon Station  (N32.442547 W110.788920)
   US/Arizona.  Observers B. M. Africano, E. J. Christensen, G. A. Farneth,
   D. C. Fuls, A. R. Gibbs, A. D. Grauer, H. Groeller, J. A. Johnson, R. A.
   Kowalski, S. M. Larson, G. J. Leonard, R. L. Seaman, F. C. Shelly. 1.0-m
   reflector + CCD.

Orbital elements:  C03CZA1
   Perihelion 2019 Mar 4.615996 TT = 14:47:02 (JD 2458547.115996)
Epoch 2019 Feb  9.0 TT = JDT 2458523.5   Earth MOID: 0.0016   Ju: 0.2244
q   0.00668912                      Ve: 0.0553   Me: 0.0748   Ma: 0.0120
H   26.0  G 0.15   Peri.  347.62819
                   Node   320.66314
e   1.0102017      Incl.   82.46446
From 7 observations 2019 Feb. 9 (2.8 hr); mean residual 0".72
Residuals in arcseconds: 
190209 703  .55+  .09+    190209 703  .24+  .25+    190209 I52  .03+  .42-    
190209 703  1.5-  1.6-    190209 I52  .16-  .81-    
190209 703  .53+  .18+    190209 I52  .18-  .82-    

Ephemerides (geocentric):
Date (UTC) HH   RA              Dec         delta   r     elong  mag
---- -- -- --  -------------   -----------  ------ ------ -----  ---
2019 02 15 22  23 22 02.436   -07 47 24.88  .22016 .78760  21.8 31??
2019 02 15 23  23 22 01.843   -07 47 15.67  .22171 .78616  21.8 31??
2019 02 16 00  23 22 01.247   -07 47 06.64  .22326 .78472  21.7 31??
2019 02 16 01  23 22 00.648   -07 46 57.77  .22481 .78328  21.7 31??
2019 02 16 02  23 22 00.044   -07 46 49.07  .22636 .78183  21.6 31??
2019 02 16 03  23 21 59.438   -07 46 40.54  .22791 .78039  21.6 31??
2019 02 16 04  23 21 58.827   -07 46 32.16  .22946 .77894  21.5 31??
2019 02 16 05  23 21 58.213   -07 46 23.95  .23101 .77750  21.5 31??
2019 02 16 06  23 21 57.596   -07 46 15.89  .23256 .77605  21.5 31??
2019 02 16 07  23 21 56.974   -07 46 07.98  .23412 .77460  21.4 31??
2019 02 16 08  23 21 56.349   -07 46 00.22  .23567 .77316  21.4 31??
2019 02 16 09  23 21 55.721   -07 45 52.61  .23722 .77171  21.3 31??
2019 02 16 10  23 21 55.088   -07 45 45.15  .23877 .77026  21.3 31??
2019 02 16 11  23 21 54.451   -07 45 37.83  .24033 .76880  21.2 31??
2019 02 16 12  23 21 53.811   -07 45 30.65  .24188 .76735  21.2 31??
2019 02 16 13  23 21 53.167   -07 45 23.60  .24343 .76590  21.2 31??
2019 02 16 14  23 21 52.519   -07 45 16.69  .24499 .76445  21.1 31??
2019 02 16 15  23 21 51.867   -07 45 09.92  .24654 .76299  21.1 31??
2019 02 16 16  23 21 51.211   -07 45 03.28  .24810 .76154  21.0 31??
2019 02 16 17  23 21 50.551   -07 44 56.76  .24965 .76008  21.0 31??
2019 02 16 18  23 21 49.887   -07 44 50.38  .25121 .75862  20.9 31??
2019 02 16 19  23 21 49.219   -07 44 44.12  .25276 .75716  20.9 31??
2019 02 16 20  23 21 48.547   -07 44 37.98  .25432 .75570  20.8 31??
2019 02 16 21  23 21 47.871   -07 44 31.96  .25587 .75424  20.8 31??
2019 02 16 22  23 21 47.190   -07 44 26.06  .25743 .75278  20.8 31??
2019 02 16 23  23 21 46.506   -07 44 20.28  .25899 .75132  20.7 31??
2019 02 17 00  23 21 45.817   -07 44 14.62  .26054 .74986  20.7 31??
2019 02 17 01  23 21 45.124   -07 44 09.07  .26210 .74840  20.6 31??
2019 02 17 02  23 21 44.427   -07 44 03.64  .26366 .74693  20.6 31??
2019 02 17 03  23 21 43.726   -07 43 58.31  .26522 .74547  20.5 31??
2019 02 17 04  23 21 43.020   -07 43 53.10  .26677 .74400  20.5 31??
2019 02 17 05  23 21 42.310   -07 43 47.99  .26833 .74253  20.5 31??
2019 02 17 06  23 21 41.596   -07 43 42.99  .26989 .74107  20.4 31??
2019 02 17 07  23 21 40.877   -07 43 38.09  .27145 .73960  20.4 31??
2019 02 17 08  23 21 40.154   -07 43 33.30  .27301 .73813  20.3 31??
2019 02 17 09  23 21 39.426   -07 43 28.60  .27457 .73666  20.3 31??
2019 02 17 10  23 21 38.694   -07 43 24.01  .27613 .73518  20.2 31??
2019 02 17 11  23 21 37.958   -07 43 19.52  .27769 .73371  20.2 31??
2019 02 17 12  23 21 37.217   -07 43 15.13  .27925 .73224  20.1 31??
2019 02 17 13  23 21 36.471   -07 43 10.83  .28081 .73076  20.1 31??
2019 02 17 14  23 21 35.721   -07 43 06.63  .28238 .72929  20.1 31??
2019 02 17 15  23 21 34.967   -07 43 02.52  .28394 .72781  20.0 31??
2019 02 17 16  23 21 34.208   -07 42 58.51  .28550 .72634  20.0 31??
2019 02 17 17  23 21 33.444   -07 42 54.58  .28706 .72486  19.9 31??
2019 02 17 18  23 21 32.676   -07 42 50.75  .28863 .72338  19.9 31??
2019 02 17 19  23 21 31.902   -07 42 47.01  .29019 .72190  19.8 31??
2019 02 17 20  23 21 31.125   -07 42 43.35  .29175 .72042  19.8 31??
2019 02 17 21  23 21 30.342   -07 42 39.78  .29332 .71893  19.7 31??